Weather History for KLVK - May, 2013

Change the Weather History Date:

Monday, May 13, 2013

  Actual Average Record
Temperature  
Mean Temperature 69 °F 62 °F  
Max Temperature 85 °F 75 °F 99 °F (1972)
Min Temperature 52 °F 49 °F 36 °F (1943)
Degree Days  
Heating Degree Days 0 4  
Month to date heating degree days 10 64  
Since 1 July heating degree days 2337 2686  
Cooling Degree Days 4 1  
Month to date cooling degree days 51 13  
Year to date cooling degree days 84 22  
Growing Degree Days 18 (Base 50)    
Moisture  
Dew Point 49 °F    
Average Humidity 55    
Maximum Humidity 83    
Minimum Humidity 27    
Precipitation  
Precipitation 0.00 in 0.02 in 0.31 in (1995)
Month to date precipitation 0.09 0.37  
Year to date precipitation 2.05 9.61  
Since 1 July precipitation 10.34  
Sea Level Pressure  
Sea Level Pressure 30.01 in    
Wind  
Wind Speed 8 mph (WNW)    
Max Wind Speed 17 mph    
Max Gust Speed 21 mph    
Visibility 10 miles    
Events      
T = Trace of Precipitation, MM = Missing Value Source: NWS Daily Summary

Daily Weather History Graph

Daily Weather History Graph

Search for Another Location

Airport or City:

Trip Planner

Search our weather history database for the weather conditions in past years. The results will help you decide how hot, cold, wet, or windy it might be!

Date:

Astronomy

May. 13, 2013 Rise Set
Actual Time 5:59 AM PDT 8:08 PM PDT
Civil Twilight 5:29 AM PDT 8:37 PM PDT
Nautical Twilight 4:54 AM PDT 9:13 PM PDT
Astronomical Twilight 4:15 AM PDT 9:52 PM PDT
Moon 8:50 AM PDT (5/13) 11:21 PM PDT (5/13)
Length of Visible Light 15h 08m
Length of Day
14h 09m
Waxing Crescent, 13% of the Moon is Illuminated
May 13
Waxing Crescent
May 17
First Quarter
May 24
Full
May 31
Last Quarter
Jun 8
New

Hourly Weather History & Observations

Time (PDT) Temp. Dew Point Humidity Pressure Visibility Wind Dir Wind Speed Gust Speed Precip Events Conditions
12:53 AM 59.0 °F 46.0 °F 62% 30.04 in 10.0 mi WNW 5.8 mph - N/A   Clear
1:53 AM 59.0 °F 43.0 °F 55% 30.03 in 10.0 mi WNW 5.8 mph - N/A   Clear
2:53 AM 57.9 °F 46.0 °F 65% 30.02 in 10.0 mi WNW 8.1 mph - N/A   Clear
3:53 AM 55.9 °F 46.9 °F 72% 30.03 in 10.0 mi WNW 5.8 mph - N/A   Clear
4:53 AM 54.0 °F 46.9 °F 77% 30.03 in 10.0 mi WNW 8.1 mph - N/A   Clear
5:53 AM 52.0 °F 46.9 °F 83% 30.04 in 10.0 mi West 4.6 mph - N/A   Clear
6:53 AM 55.0 °F 48.0 °F 77% 30.06 in 10.0 mi NW 4.6 mph - N/A   Clear
7:53 AM 57.9 °F 48.0 °F 70% 30.06 in 10.0 mi Calm Calm - N/A   Clear
8:53 AM 62.1 °F 51.1 °F 67% 30.08 in 10.0 mi WNW 8.1 mph - N/A   Clear
9:53 AM 66.0 °F 50.0 °F 56% 30.09 in 10.0 mi SW 3.5 mph - N/A   Clear
10:53 AM 72.0 °F 48.9 °F 44% 30.07 in 10.0 mi WSW 6.9 mph - N/A   Clear
11:53 AM 75.0 °F 51.1 °F 43% 30.07 in 10.0 mi WSW 4.6 mph - N/A   Clear
1:53 PM 82.9 °F 48.0 °F 29% 30.02 in 10.0 mi WNW 12.7 mph - N/A   Clear
2:53 PM 84.0 °F 50.0 °F 31% 30.01 in 10.0 mi West 11.5 mph - N/A   Clear
3:53 PM 84.9 °F 46.9 °F 27% 29.98 in 10.0 mi West 11.5 mph - N/A   Clear
5:53 PM 77.0 °F 54.0 °F 45% 29.96 in 10.0 mi WNW 12.7 mph - N/A   Clear
6:53 PM 73.0 °F 53.1 °F 49% 29.95 in 10.0 mi WNW 12.7 mph - N/A   Clear
7:53 PM 68.0 °F 53.1 °F 59% 29.95 in 10.0 mi WSW 6.9 mph - N/A   Clear
8:53 PM 63.0 °F 52.0 °F 67% 29.95 in 10.0 mi West 8.1 mph - N/A   Clear
9:53 PM 61.0 °F 51.1 °F 70% 29.97 in 10.0 mi WNW 9.2 mph - N/A   Clear
10:53 PM 60.1 °F 51.1 °F 72% 29.96 in 10.0 mi NW 4.6 mph - N/A   Clear
11:53 PM 59.0 °F 50.0 °F 72% 29.95 in 10.0 mi West 4.6 mph - N/A   Clear